Terminal Aerodrome Forecast
Issued by NWS Norman, OK

Home | Current Version | Previous Version | Text Only | Print | Product List | Glossary On
Versions: 1 2 3 4 5 6 7 8 9 10 11 12 13 14 15 16 17 18 19 20 21 22 23 24 25 26 27 28 29 30 31
000
FTUS44 KOUN 312329
TAFOKC
TAF
KOKC 312329Z 0100/0124 28006KT P6SM VCTS SCT045CB BKN100 OVC180
     FM010100 12005KT P6SM BKN100 OVC200
     FM011500 19011KT P6SM BKN050 BKN120=

USA.gov is the U.S. government's official web portal to all federal, state and local government web resources and services.